DW1415 Weather Reports


Display with metric or nautical units.
time (UTC)temp
F
wind
direction
speed
MPH
gust
MPH
rain 1hr
in
rain 24hr
in
rain mn
in
humidity
%
barometer
mb
20260504170503 69 356 5.0 10.0 0.00 0.00 0.00 37 1009.2
20260504151005 65 2 3.0 8.0 0.00 0.00 0.00 41 1010.7
20260504141004 62 7 4.0 12.0 0.00 0.00 0.00 44 1011.1
20260504130503 57 66 3.0 8.0 0.00 0.00 0.00 54 1011.8
20260504100503 50 357 2.0 7.0 0.00 0.00 0.00 54 1012.0
20260504081504 52 23 2.0 5.0 0.00 0.00 0.00 51 1011.5
20260504081004 52 12 2.0 5.0 0.00 0.00 0.00 50 1011.5
20260504050502 53 11 2.0 5.0 0.00 0.00 0.00 48 1011.0
20260504045003 53 357 1.0 3.0 0.00 0.00 0.00 48 1011.0
20260504044502 54 355 2.0 3.0 0.00 0.00 0.00 47 1010.9
20260504044002 54 24 2.0 3.0 0.00 0.00 0.00 46 1010.9
20260504043003 54 29 2.0 3.0 0.00 0.00 0.00 46 1010.9
20260504041003 54 41 2.0 3.0 0.00 0.00 0.00 46 1010.6
20260504040503 54 17 1.0 3.0 0.00 0.00 0.00 46 1010.6
20260504035502 54 2 1.0 5.0 0.00 0.00 0.00 45 1010.6
20260504035002 54 348 2.0 3.0 0.00 0.00 0.00 45 1010.6
20260504033502 54 355 1.0 3.0 0.00 0.00 0.00 44 1010.6
20260504031504 55 15 0.0 2.0 0.00 0.00 0.00 43 1010.5
20260504030002 55 20 0.0 2.0 0.00 0.00 0.00 42 1010.5
20260504025502 55 11 1.0 3.0 0.00 0.00 0.00 41 1010.4
20260504025003 56 357 2.0 3.0 0.00 0.00 0.00 41 1010.4
20260504024502 56 12 2.0 5.0 0.00 0.00 0.00 40 1010.5
20260504023503 56 4 2.0 3.0 0.00 0.00 0.00 40 1010.5
20260504022002 56 10 1.0 3.0 0.00 0.00 0.00 40 1010.5
20260504021503 56 6 2.0 3.0 0.00 0.00 0.00 39 1010.5
20260504015502 56 10 1.0 3.0 0.00 0.00 0.00 39 1010.5
20260504015003 56 355 1.0 2.0 0.00 0.00 0.00 39 1010.4
20260504013502 56 42 0.0 0.0 0.00 0.00 0.00 39 1010.2
20260504013004 56 42 0.0 0.0 0.00 0.00 0.00 39 1010.2
20260504012502 56 42 0.0 0.0 0.00 0.00 0.00 39 1010.2
20260504011503 56 42 0.0 1.0 0.00 0.00 0.00 38 1010.1
20260504011004 56 42 0.0 0.0 0.00 0.00 0.00 38 1010.1
20260504010003 57 42 0.0 0.0 0.00 0.00 0.00 38 1009.9
20260504005002 57 42 0.0 0.0 0.00 0.00 0.00 36 1009.8
20260504003504 58 42 0.0 0.0 0.00 0.00 0.00 36 1009.7
20260504003003 58 42 0.0 0.0 0.00 0.00 0.00 35 1009.6
20260504002003 59 42 0.0 0.0 0.00 0.00 0.00 34 1009.4
20260504001003 59 58 0.0 2.0 0.00 0.00 0.00 34 1009.2
20260504000502 59 60 0.0 1.0 0.00 0.00 0.00 34 1009.1
20260504000002 60 60 0.0 0.0 0.00 0.00 0.00 33 1009.1
20260503235003 60 60 1.0 3.0 0.00 0.00 0.00 32 1009.0
20260503234004 60 327 1.0 3.0 0.00 0.00 0.00 31 1008.8
20260503233503 60 264 1.0 3.0 0.00 0.00 0.00 31 1008.8
20260503233003 60 50 2.0 3.0 0.00 0.00 0.00 31 1008.6
20260503232504 60 193 1.0 3.0 0.00 0.00 0.00 32 1008.6
20260503231003 61 345 1.0 3.0 0.00 0.00 0.00 30 1008.6
20260503230502 61 23 1.0 2.0 0.00 0.00 0.00 30 1008.6
20260503224503 61 339 2.0 5.0 0.00 0.00 0.00 29 1008.5
20260503224003 61 43 2.0 7.0 0.00 0.00 0.00 29 1008.4
20260503220503 61 238 2.0 7.0 0.00 0.00 0.00 28 1008.4
20260503220002 61 210 3.0 8.0 0.00 0.00 0.00 28 1008.4
20260503215503 61 88 2.0 6.0 0.00 0.00 0.00 29 1008.5
20260503214503 61 241 2.0 6.0 0.00 0.00 0.00 28 1008.4
20260503214002 61 47 3.0 9.0 0.00 0.00 0.00 29 1008.5
20260503213502 61 206 3.0 7.0 0.00 0.00 0.00 28 1008.5
20260503213003 61 188 2.0 6.0 0.00 0.00 0.00 28 1008.5
20260503212503 61 68 5.0 9.0 0.00 0.00 0.00 29 1008.4
20260503210003 60 55 3.0 8.0 0.00 0.00 0.00 30 1008.3
20260503205504 60 72 3.0 7.0 0.00 0.00 0.00 30 1008.3
20260503205002 60 327 3.0 7.0 0.00 0.00 0.00 29 1008.3
20260503204003 60 329 3.0 8.0 0.00 0.00 0.00 30 1008.4
20260503202503 60 357 3.0 9.0 0.00 0.00 0.00 30 1008.5
20260503200503 60 344 3.0 9.0 0.00 0.00 0.00 31 1008.6
20260503200003 59 177 2.0 6.0 0.00 0.00 0.00 32 1008.6
20260503195504 59 284 3.0 8.0 0.00 0.00 0.00 30 1008.7
20260503194503 60 82 3.0 8.0 0.00 0.00 0.00 31 1008.8
20260503193503 59 21 4.0 10.0 0.00 0.00 0.00 31 1008.9
20260503193003 60 72 3.0 9.0 0.00 0.00 0.00 32 1008.9
20260503191003 58 62 4.0 9.0 0.00 0.00 0.00 33 1009.0
20260503185502 58 113 3.0 8.0 0.00 0.00 0.00 35 1009.0
20260503185002 59 61 3.0 5.0 0.00 0.00 0.00 34 1009.2
20260503184502 58 1 2.0 3.0 0.00 0.00 0.00 35 1009.3
20260503183503 57 318 2.0 5.0 0.00 0.00 0.00 36 1009.3
20260503182505 57 310 3.0 9.0 0.00 0.00 0.00 35 1009.4
20260503180003 56 210 2.0 8.0 0.00 0.00 0.00 40 1009.6
20260503175503 56 353 3.0 12.0 0.00 0.00 0.00 40 1009.8
20260503175004 55 350 2.0 6.0 0.00 0.00 0.00 39 1009.6
20260503174003 55 204 2.0 6.0 0.00 0.00 0.00 41 1009.7
20260503173003 55 61 3.0 6.0 0.00 0.00 0.00 40 1009.7
20260503172504 55 44 3.0 9.0 0.00 0.00 0.00 40 1009.8
20260503172003 54 102 3.0 8.0 0.00 0.00 0.00 41 1010.0
20260503171503 54 258 3.0 6.0 0.00 0.00 0.00 41 1009.8
20260503171003 54 45 2.0 6.0 0.00 0.00 0.00 41 1009.8